K5GLH Weather Reports


time (UTC)temp
C
wind
direction
speed
KPH
gust
KPH
rain 1hr
cm
rain 24hr
cm
rain mn
cm
humidity
%
barometer
mb
20260906203543 38 357 4.8 19.3 0.00 0.00 0.00 35 1009.0
20260906203044 38 150 8.0 20.9 0.00 0.00 0.00 35 1009.1
20260906202539 38 170 0.0 11.3 0.00 0.00 0.00 36 1009.2
20260906202037 37 190 4.8 12.9 0.00 0.00 0.00 36 1009.2
20260906201536 37 134 0.0 11.3 0.00 0.00 0.00 36 1009.3
20260906201034 37 139 1.6 17.7 0.00 0.00 0.00 37 1009.4
20260906200534 37 100 6.4 17.7 0.00 0.00 0.00 37 1009.6
20260906200042 37 140 1.6 12.9 0.00 0.00 0.00 37 1009.6
20260906195535 37 128 4.8 12.9 0.00 0.00 0.00 37 1009.7
20260906195033 37 114 4.8 19.3 0.00 0.00 0.00 37 1009.8
20260906194533 37 357 8.0 19.3 0.00 0.00 0.00 36 1009.8
20260906194033 37 357 8.0 14.5 0.00 0.00 0.00 37 1009.8
20260906193534 37 258 8.0 17.7 0.00 0.00 0.00 36 1009.9
20260906193035 37 357 4.8 17.7 0.00 0.00 0.00 37 1009.9
20260906192530 37 134 6.4 12.9 0.00 0.00 0.00 38 1010.2
20260906192130 37 357 6.4 12.9 0.00 0.00 0.00 37 1010.2
20260906191537 37 357 8.0 16.1 0.00 0.00 0.00 38 1010.3
20260906191027 37 134 9.7 16.1 0.00 0.00 0.00 38 1010.4
20260906190527 37 329 3.2 12.9 0.00 0.00 0.00 38 1010.4
20260906190030 37 357 1.6 12.9 0.00 0.00 0.00 37 1010.6
20260906185529 37 129 6.4 12.9 0.00 0.00 0.00 38 1010.7
20260906185025 37 137 4.8 14.5 0.00 0.00 0.00 39 1010.7
20260906184525 37 203 6.4 14.5 0.00 0.00 0.00 38 1010.8
20260906184026 37 231 6.4 19.3 0.00 0.00 0.00 38 1010.9
20260906183526 37 357 9.7 19.3 0.00 0.00 0.00 38 1011.0
20260906183027 37 127 1.6 16.1 0.00 0.00 0.00 39 1011.0
20260906182526 37 357 8.0 17.7 0.00 0.00 0.00 39 1011.2
20260906182023 37 101 1.6 8.0 0.00 0.00 0.00 41 1011.2
20260906181540 36 197 1.6 8.0 0.00 0.00 0.00 43 1011.3
20260906181022 36 210 3.2 14.5 0.00 0.00 0.00 40 1011.3
20260906180521 36 200 6.4 16.1 0.00 0.00 0.00 42 1011.4
20260906180023 36 357 6.4 16.1 0.00 0.00 0.00 42 1011.5
20260906175518 36 228 1.6 8.0 0.00 0.00 0.00 42 1011.6
20260906175021 36 211 3.2 9.7 0.00 0.00 0.00 42 1011.7
20260906174518 36 163 4.8 12.9 0.00 0.00 0.00 42 1011.8
20260906174016 36 183 3.2 12.9 0.00 0.00 0.00 44 1011.9
20260906173520 36 200 4.8 12.9 0.00 0.00 0.00 44 1012.0
20260906173016 35 102 1.6 4.8 0.00 0.00 0.00 45 1012.1
20260906172515 35 98 1.6 6.4 0.00 0.00 0.00 45 1012.2
20260906172019 35 122 1.6 6.4 0.00 0.00 0.00 45 1012.3
20260906171516 35 121 1.6 6.4 0.00 0.00 0.00 47 1012.4
20260906171015 35 117 1.6 11.3 0.00 0.00 0.00 46 1012.5
20260906170521 35 160 4.8 11.3 0.00 0.00 0.00 46 1012.6
20260906170015 35 193 4.8 8.0 0.00 0.00 0.00 45 1012.7
20260906165514 35 284 3.2 8.0 0.00 0.00 0.00 45 1012.7
20260906165015 35 357 4.8 8.0 0.00 0.00 0.00 44 1012.7
20260906164517 35 239 4.8 9.7 0.00 0.00 0.00 44 1012.7
20260906164014 36 182 4.8 14.5 0.00 0.00 0.00 43 1012.9
20260906163513 36 105 3.2 14.5 0.00 0.00 0.00 44 1012.9
20260906163013 35 60 0.0 6.4 0.00 0.00 0.00 45 1012.9
20260906162511 35 55 3.2 9.7 0.00 0.00 0.00 45 1012.9
20260906162010 35 160 4.8 9.7 0.00 0.00 0.00 45 1013.0
20260906161509 35 159 3.2 9.7 0.00 0.00 0.00 46 1012.9
20260906161007 35 122 1.6 6.4 0.00 0.00 0.00 47 1012.9
20260906160506 35 122 1.6 9.7 0.00 0.00 0.00 47 1012.9
20260906160005 34 114 1.6 9.7 0.00 0.00 0.00 48 1012.9
20260906155503 34 158 3.2 6.4 0.00 0.00 0.00 50 1012.9
20260906155003 33 217 0.0 6.4 0.00 0.00 0.00 49 1012.9
20260906154600 33 217 3.2 6.4 0.00 0.00 0.00 49 1012.9
20260906154507 33 217 3.2 6.4 0.00 0.00 0.00 49 1012.9
20260906154059 33 197 3.2 8.0 0.00 0.00 0.00 50 1012.9
20260906153557 32 160 0.0 8.0 0.00 0.00 0.00 51 1012.9
20260906153058 32 162 6.4 9.7 0.00 0.00 0.00 51 1012.9
20260906152557 32 229 3.2 11.3 0.00 0.00 0.00 52 1013.0
20260906152056 32 242 3.2 11.3 0.00 0.00 0.00 52 1012.9
20260906151558 32 215 1.6 6.4 0.00 0.00 0.00 53 1012.8
20260906151054 32 242 1.6 6.4 0.00 0.00 0.00 54 1012.9
20260906150552 32 239 3.2 6.4 0.00 0.00 0.00 54 1012.9
20260906150051 31 238 1.6 6.4 0.00 0.00 0.00 55 1012.8
20260906145551 31 266 3.2 8.0 0.00 0.00 0.00 55 1012.9
20260906145050 31 262 3.2 9.7 0.00 0.00 0.00 56 1013.0
20260906144607 31 233 3.2 9.7 0.00 0.00 0.00 56 1013.0
20260906144048 31 242 3.2 11.3 0.00 0.00 0.00 57 1013.1
20260906143548 31 229 4.8 11.3 0.00 0.00 0.00 57 1013.1
20260906143047 30 262 3.2 11.3 0.00 0.00 0.00 58 1013.1
20260906142547 30 260 3.2 9.7 0.00 0.00 0.00 59 1013.1
20260906142043 30 247 3.2 8.0 0.00 0.00 0.00 59 1013.1
20260906141542 30 239 3.2 8.0 0.00 0.00 0.00 60 1013.1
20260906141040 30 231 4.8 9.7 0.00 0.00 0.00 60 1013.0
20260906140540 29 195 1.6 4.8 0.00 0.00 0.00 62 1013.0
20260906140041 28 195 1.6 9.7 0.00 0.00 0.00 62 1013.0
20260906135541 28 357 3.2 9.7 0.00 0.00 0.00 63 1013.0
20260906135039 28 225 3.2 8.0 0.00 0.00 0.00 64 1013.0
20260906134538 28 156 3.2 8.0 0.00 0.00 0.00 64 1012.9
20260906134038 27 156 1.6 8.0 0.00 0.00 0.00 65 1012.9
20260906133539 27 98 1.6 4.8 0.00 0.00 0.00 66 1012.8
20260906133039 27 97 1.6 4.8 0.00 0.00 0.00 67 1012.9
20260906132537 26 96 0.0 4.8 0.00 0.00 0.00 67 1012.8
20260906132037 26 94 0.0 4.8 0.00 0.00 0.00 67 1012.7
20260906131539 26 95 1.6 4.8 0.00 0.00 0.00 67 1012.7
20260906131035 26 80 0.0 4.8 0.00 0.00 0.00 68 1012.6
20260906130535 26 155 0.0 4.8 0.00 0.00 0.00 68 1012.6
20260906130038 26 155 0.0 0.0 0.00 0.00 0.00 68 1012.5
20260906125534 25 155 0.0 0.0 0.00 0.00 0.00 69 1012.5
20260906125034 25 155 0.0 0.0 0.00 0.00 0.00 69 1012.5
20260906124538 25 155 0.0 0.0 0.00 0.00 0.00 69 1012.5
20260906124034 25 155 0.0 1.6 0.00 0.00 0.00 69 1012.4
20260906123533 25 155 0.0 3.2 0.00 0.00 0.00 69 1012.4
20260906123035 25 155 1.6 3.2 0.00 0.00 0.00 69 1012.3
20260906122532 25 155 0.0 3.2 0.00 0.00 0.00 69 1012.2
20260906122031 25 155 0.0 3.2 0.00 0.00 0.00 68 1012.2
20260906121531 25 155 0.0 3.2 0.00 0.00 0.00 68 1012.2
20260906121030 25 155 0.0 3.2 0.00 0.00 0.00 68 1012.1
20260906120529 25 155 0.0 3.2 0.00 0.00 0.00 68 1012.0
20260906120029 25 155 0.0 4.8 0.00 0.00 0.00 68 1012.0
20260906115529 25 155 0.0 4.8 0.00 0.00 0.00 68 1011.9
20260906115028 25 155 1.6 4.8 0.00 0.00 0.00 67 1011.9
20260906114544 26 155 0.0 3.2 0.00 0.00 0.00 67 1011.9
20260906114028 26 155 1.6 3.2 0.00 0.00 0.00 67 1011.9
20260906113527 26 155 1.6 4.8 0.00 0.00 0.00 67 1011.8
20260906113029 26 155 1.6 4.8 0.00 0.00 0.00 67 1011.8
20260906112525 25 155 1.6 4.8 0.00 0.00 0.00 67 1011.7
20260906112027 25 155 1.6 3.2 0.00 0.00 0.00 68 1011.6
20260906111532 25 155 0.0 0.0 0.00 0.00 0.00 68 1011.6
20260906111024 25 155 0.0 0.0 0.00 0.00 0.00 68 1011.5
20260906110524 25 155 0.0 0.0 0.00 0.00 0.00 68 1011.4
20260906110024 25 155 0.0 0.0 0.00 0.00 0.00 68 1011.3
20260906105523 25 155 0.0 0.0 0.00 0.00 0.00 68 1011.4
20260906105023 25 155 0.0 1.6 0.00 0.00 0.00 68 1011.4
20260906104531 25 155 0.0 1.6 0.00 0.00 0.00 68 1011.4
20260906104021 26 155 0.0 1.6 0.00 0.00 0.00 67 1011.3
20260906103520 26 155 0.0 1.6 0.00 0.00 0.00 67 1011.3
20260906103020 26 155 0.0 1.6 0.00 0.00 0.00 67 1011.2
20260906102519 26 155 0.0 3.2 0.00 0.00 0.00 67 1011.2
20260906102021 26 155 0.0 3.2 0.00 0.00 0.00 67 1011.2
20260906101517 26 155 0.0 1.6 0.00 0.00 0.00 66 1011.2
20260906101017 26 155 0.0 3.2 0.00 0.00 0.00 66 1011.2
20260906100516 26 155 0.0 4.8 0.00 0.00 0.00 66 1011.2
20260906100017 26 155 0.0 4.8 0.00 0.00 0.00 66 1011.2
20260906095520 26 155 1.6 4.8 0.00 0.00 0.00 66 1011.3
20260906095016 26 155 1.6 4.8 0.00 0.00 0.00 66 1011.2
20260906094538 26 155 1.6 4.8 0.00 0.00 0.00 66 1011.2
20260906094016 26 155 1.6 4.8 0.00 0.00 0.00 66 1011.1
20260906093516 26 166 3.2 6.4 0.00 0.00 0.00 66 1011.2
20260906093036 26 167 3.2 6.4 0.00 0.00 0.00 66 1011.1
20260906092517 26 166 1.6 3.2 0.00 0.00 0.00 66 1011.3
20260906092018 26 166 0.0 4.8 0.00 0.00 0.00 66 1011.2
20260906091517 26 166 0.0 4.8 0.00 0.00 0.00 67 1011.3
20260906091015 26 167 0.0 6.4 0.00 0.00 0.00 66 1011.4
20260906090515 26 174 0.0 6.4 0.00 0.00 0.00 65 1011.3
20260906090024 26 176 0.0 0.0 0.00 0.00 0.00 64 1011.2
20260906085512 26 176 0.0 0.0 0.00 0.00 0.00 64 1011.3
20260906085012 26 176 0.0 0.0 0.00 0.00 0.00 64 1011.2
20260906084517 26 176 0.0 0.0 0.00 0.00 0.00 63 1011.3
20260906084013 26 176 0.0 0.0 0.00 0.00 0.00 63 1011.1
20260906083512 26 176 0.0 0.0 0.00 0.00 0.00 63 1011.0
20260906083011 26 176 0.0 0.0 0.00 0.00 0.00 63 1011.1
20260906082511 26 176 0.0 1.6 0.00 0.00 0.00 63 1011.2
20260906082013 26 176 0.0 4.8 0.00 0.00 0.00 63 1011.1
20260906081514 26 176 1.6 4.8 0.00 0.00 0.00 64 1011.1
20260906081011 26 176 0.0 0.0 0.00 0.00 0.00 64 1011.1
20260906080510 26 176 0.0 0.0 0.00 0.00 0.00 64 1011.3
20260906080010 26 176 0.0 0.0 0.00 0.00 0.00 64 1011.1
20260906075509 26 176 0.0 0.0 0.00 0.00 0.00 64 1011.1
20260906075009 26 176 0.0 0.0 0.00 0.00 0.00 64 1011.2
20260906074508 26 176 0.0 0.0 0.00 0.00 0.00 64 1011.1
20260906074007 26 176 0.0 0.0 0.00 0.00 0.00 64 1011.0
20260906073506 26 176 0.0 0.0 0.00 0.00 0.00 63 1011.0
20260906073010 26 176 0.0 0.0 0.00 0.00 0.00 63 1011.0
20260906072506 26 176 0.0 0.0 0.00 0.00 0.00 63 1011.0
20260906072006 27 176 0.0 0.0 0.00 0.00 0.00 62 1011.1
20260906071505 27 176 0.0 0.0 0.00 0.00 0.00 62 1011.1
20260906071004 27 176 0.0 0.0 0.00 0.00 0.00 61 1011.2
20260906070503 27 176 0.0 0.0 0.00 0.00 0.00 61 1011.1
20260906070002 27 176 0.0 0.0 0.00 0.00 0.00 61 1011.2
20260906065501 27 176 0.0 0.0 0.00 0.00 0.00 60 1011.1
20260906065002 27 176 0.0 0.0 0.00 0.00 0.00 60 1011.1
20260906064600 27 176 0.0 0.0 0.00 0.00 0.00 60 1011.0
20260906064100 27 176 0.0 0.0 0.00 0.00 0.00 59 1011.1
20260906063558 28 176 0.0 0.0 0.00 0.00 0.00 58 1011.0
20260906063057 28 176 0.0 0.0 0.00 0.00 0.00 58 1011.0
20260906062556 28 176 0.0 0.0 0.00 0.00 0.00 58 1010.9
20260906062101 28 176 0.0 0.0 0.00 0.00 0.00 57 1011.0
20260906061602 28 176 0.0 0.0 0.00 0.00 0.00 57 1011.0
20260906061054 28 176 0.0 0.0 0.00 0.00 0.00 57 1011.1
20260906060553 28 176 0.0 0.0 0.00 0.00 0.00 56 1011.1
20260906060053 28 176 0.0 0.0 0.00 0.00 0.00 56 1011.0
20260906055551 29 176 0.0 0.0 0.00 0.00 0.00 55 1011.2
20260906055050 29 176 0.0 0.0 0.00 0.00 0.00 55 1011.0
20260906054551 29 176 0.0 3.2 0.00 0.00 0.00 54 1011.0
20260906054052 29 176 0.0 3.2 0.00 0.00 0.00 54 1010.9
20260906053548 29 176 0.0 3.2 0.00 0.00 0.00 54 1010.9
20260906053048 30 176 0.0 3.2 0.00 0.00 0.00 54 1010.7
20260906052547 30 176 0.0 4.8 0.00 0.00 0.00 54 1010.7
20260906052049 30 176 1.6 4.8 0.00 0.00 0.00 53 1010.7
20260906051558 30 176 1.6 6.4 0.00 0.00 0.00 53 1010.8
20260906051045 30 176 1.6 8.0 0.00 0.00 0.00 53 1010.6
20260906050543 30 176 1.6 8.0 0.00 0.00 0.00 53 1010.5
20260906050043 30 152 1.6 8.0 0.00 0.00 0.00 53 1010.5
20260906045543 30 153 0.0 0.0 0.00 0.00 0.00 53 1010.5
20260906045044 30 153 0.0 0.0 0.00 0.00 0.00 53 1010.5
20260906044551 30 152 0.0 0.0 0.00 0.00 0.00 53 1010.6
20260906044042 30 153 0.0 0.0 0.00 0.00 0.00 53 1010.6
20260906043542 30 154 0.0 0.0 0.00 0.00 0.00 52 1010.7
20260906043042 30 153 0.0 1.6 0.00 0.00 0.00 52 1010.6
20260906042541 30 153 0.0 4.8 0.00 0.00 0.00 52 1010.5
20260906042041 30 152 0.0 4.8 0.00 0.00 0.00 52 1010.5
20260906041542 30 357 0.0 0.0 0.00 0.00 0.00 52 1010.6
20260906041040 30 152 0.0 0.0 0.00 0.00 0.00 52 1010.6
20260906040541 30 152 0.0 0.0 0.00 0.00 0.00 51 1010.6
20260906040041 30 152 0.0 0.0 0.00 0.00 0.00 51 1010.7
20260906035543 31 152 0.0 0.0 0.00 0.00 0.00 51 1010.7
20260906035040 31 152 0.0 0.0 0.00 0.00 0.00 51 1010.7
20260906034541 31 152 0.0 0.0 0.00 0.00 0.00 50 1010.6
20260906034040 31 152 0.0 3.2 0.00 0.00 0.00 50 1010.5
20260906033541 31 152 0.0 3.2 0.00 0.00 0.00 50 1010.5
20260906033045 31 153 1.6 3.2 0.00 0.00 0.00 49 1010.5
20260906032539 31 152 0.0 4.8 0.00 0.00 0.00 49 1010.5
20260906032038 31 152 1.6 4.8 0.00 0.00 0.00 49 1010.5
20260906031540 31 154 1.6 4.8 0.00 0.00 0.00 49 1010.4
20260906031041 31 153 0.0 4.8 0.00 0.00 0.00 49 1010.4
20260906030538 31 152 1.6 8.0 0.00 0.00 0.00 48 1010.4
20260906030038 31 141 1.6 4.8 0.00 0.00 0.00 48 1010.4
20260906025536 31 143 1.6 4.8 0.00 0.00 0.00 48 1010.3
20260906025036 31 142 1.6 4.8 0.00 0.00 0.00 48 1010.2
20260906024546 32 142 0.0 4.8 0.00 0.00 0.00 48 1010.2
20260906024036 32 143 0.0 3.2 0.00 0.00 0.00 48 1010.1
20260906023537 32 143 0.0 4.8 0.00 0.00 0.00 47 1010.0
20260906023036 32 143 1.6 4.8 0.00 0.00 0.00 47 1009.9
20260906022536 32 137 0.0 3.2 0.00 0.00 0.00 47 1009.8
20260906022037 32 138 0.0 4.8 0.00 0.00 0.00 47 1009.7
20260906021536 32 138 1.6 4.8 0.00 0.00 0.00 46 1009.7
20260906021035 32 137 0.0 3.2 0.00 0.00 0.00 46 1009.7
20260906020535 32 137 0.0 3.2 0.00 0.00 0.00 46 1009.6
20260906020034 33 137 0.0 3.2 0.00 0.00 0.00 45 1009.5
20260906015534 33 138 0.0 3.2 0.00 0.00 0.00 45 1009.5
20260906015034 33 137 0.0 6.4 0.00 0.00 0.00 44 1009.4
20260906014549 33 138 1.6 6.4 0.00 0.00 0.00 44 1009.3
20260906014034 33 138 3.2 6.4 0.00 0.00 0.00 44 1009.2
20260906013534 33 136 0.0 6.4 0.00 0.00 0.00 45 1009.1
20260906013043 33 135 0.0 4.8 0.00 0.00 0.00 44 1009.0
20260906012533 33 134 0.0 4.8 0.00 0.00 0.00 44 1008.9
20260906012038 33 134 1.6 4.8 0.00 0.00 0.00 43 1008.9
20260906011538 34 133 0.0 3.2 0.00 0.00 0.00 43 1008.8
20260906011034 34 134 1.6 4.8 0.00 0.00 0.00 42 1008.8
20260906010534 34 134 1.6 6.4 0.00 0.00 0.00 42 1008.8
20260906010033 34 135 1.6 6.4 0.00 0.00 0.00 42 1008.8
20260906005532 35 168 1.6 6.4 0.00 0.00 0.00 42 1008.8
20260906005036 35 172 1.6 8.0 0.00 0.00 0.00 41 1008.7
20260906004534 35 147 3.2 9.7 0.00 0.00 0.00 41 1008.7
20260906004036 35 154 3.2 9.7 0.00 0.00 0.00 41 1008.7
20260906003532 35 161 3.2 9.7 0.00 0.00 0.00 40 1008.6
20260906003032 35 139 4.8 12.9 0.00 0.00 0.00 40 1008.6
20260906002531 35 128 4.8 12.9 0.00 0.00 0.00 40 1008.6
20260906002032 35 103 4.8 12.9 0.00 0.00 0.00 40 1008.6
20260906001532 35 142 3.2 8.0 0.00 0.00 0.00 40 1008.6
20260906001031 36 198 4.8 19.3 0.00 0.00 0.00 40 1008.6
20260906000531 36 123 4.8 19.3 0.00 0.00 0.00 39 1008.5
20260906000032 36 178 4.8 9.7 0.00 0.00 0.00 38 1008.5
20260905235530 36 126 4.8 12.9 0.00 0.00 0.00 38 1008.3
20260905235031 36 156 3.2 12.9 0.00 0.00 0.00 38 1008.3
20260905234535 36 125 3.2 16.1 0.00 0.00 0.00 38 1008.4
20260905234030 36 180 6.4 17.7 0.00 0.00 0.00 38 1008.4
20260905233533 36 188 6.4 17.7 0.00 0.00 0.00 38 1008.2
20260905233031 36 116 8.0 14.5 0.00 0.00 0.00 37 1008.1
20260905232533 36 184 4.8 12.9 0.00 0.00 0.00 37 1008.1
20260905232030 37 134 6.4 12.9 0.00 0.00 0.00 37 1008.1
20260905231530 37 168 6.4 16.1 0.00 0.00 0.00 37 1008.0
20260905231030 37 357 6.4 14.5 0.00 0.00 0.00 37 1007.9
20260905230529 37 357 3.2 9.7 0.00 0.00 0.00 36 1007.9
20260905230031 37 177 1.6 14.5 0.00 0.00 0.00 36 1008.0
20260905225528 37 154 4.8 11.3 0.00 0.00 0.00 36 1008.0
20260905225028 37 357 4.8 12.9 0.00 0.00 0.00 37 1007.9
20260905224527 37 119 3.2 12.9 0.00 0.00 0.00 37 1007.7
20260905224027 37 179 4.8 12.9 0.00 0.00 0.00 37 1007.8
20260905223527 37 170 4.8 12.9 0.00 0.00 0.00 37 1007.8
20260905223027 37 125 3.2 16.1 0.00 0.00 0.00 37 1007.7
20260905222526 37 171 8.0 16.1 0.00 0.00 0.00 37 1007.7
20260905222025 37 357 4.8 11.3 0.00 0.00 0.00 37 1007.8
20260905221526 37 176 6.4 14.5 0.00 0.00 0.00 36 1007.9
20260905221024 37 183 6.4 12.9 0.00 0.00 0.00 36 1008.0
20260905220521 37 161 6.4 14.5 0.00 0.00 0.00 37 1008.1
20260905220022 37 146 6.4 17.7 0.00 0.00 0.00 37 1008.0
20260905215520 37 156 8.0 17.7 0.00 0.00 0.00 36 1008.1
20260905215020 37 357 6.4 17.7 0.00 0.00 0.00 37 1008.2
20260905214524 36 122 4.8 12.9 0.00 0.00 0.00 37 1008.2
20260905214019 36 145 1.6 11.3 0.00 0.00 0.00 37 1008.3
20260905213519 36 147 6.4 17.7 0.00 0.00 0.00 37 1008.4
20260905213020 37 147 6.4 17.7 0.00 0.00 0.00 37 1008.6
20260905212517 37 130 4.8 14.5 0.00 0.00 0.00 37 1008.5
20260905212017 37 179 6.4 14.5 0.00 0.00 0.00 37 1008.5
20260905211529 37 120 8.0 14.5 0.00 0.00 0.00 37 1008.7
20260905211017 37 177 8.0 19.3 0.00 0.00 0.00 37 1008.7
20260905210515 37 204 3.2 19.3 0.00 0.00 0.00 38 1008.7
20260905210018 37 144 6.4 19.3 0.00 0.00 0.00 38 1008.9
20260905205513 36 204 8.0 19.3 0.00 0.00 0.00 38 1008.9
20260905205013 36 157 8.0 17.7 0.00 0.00 0.00 37 1008.9
20260905204520 36 125 6.4 16.1 0.00 0.00 0.00 38 1009.0